RH
18 18 18 17 18 18 9 13 23 27 35 35 40 37 31 27 26 27 29 26 25 26 26 29 31 29 22 23 27 36 40 47 56 50 43 48 57 62 62 72 66 75 76 55
28 24 20 18 20 20 20 18 20 18 28 38 38 38 36 37 36 35 37 36 36 35 35 37 33 29 24 29 29 34 37 48 56 44 44 50 60 62 62 63 67 69 77 58
28 29 27 26 25 23 19 24 31 34 39 42 50 57 52 53 47 44 43 39 42 44 44 40 35 32 32 32 28 33 39 44 42 41 38 47 54 56 59 69 75 63 59 49
26 26 25 29 34 32 29 34 37 46 45 42 51 59 61 60 62 65 63 52 52 54 52 43 45 42 39 36 35 41 47 47 44 40 42 48 49 50 62 71 60 72 43 53
36 33 29 26 29 45 44 46 50 46 42 39 42 42 39 41 43 56 57 72 72 78 66 61 56 59 55 49 49 53 53 52 51 49 45 50 52 49 49 55 59 70 59 46
31 35 32 31 30 41 54 59 60 64 55 52 54 46 40 42 45 36 38 50 64 61 63 78 68 66 60 60 61 59 63 59 59 53 51 57 58 47 40 39 44 46 56 48
29 34 40 42 39 41 55 66 75 75 69 70 67 51 53 50 47 57 50 48 54 34 53 68 70 71 70 69 64 64 69 68 72 70 61 64 35 35 32 32 33 43 49 46
33 32 34 44 48 48 62 67 78 83 81 71 83 72 62 57 55 58 57 48 54 57 54 93 94 91 78 62 73 73 77 80 84 82 71 51 42 38 37 38 36 41 50 49
28 31 34 38 37 45 57 59 83 90 92 65 73 70 68 74 66 50 46 58 63 71 77 94 96 94 87 83 73 76 83 81 81 88 87 75 46 42 44 45 43 42 49 53
39 50 51 55 54 53 61 62 86 99 98 80 96 80 80 77 83 67 62 79 73 83 81 83 95 94 86 86 74 77 81 87 86 83 82 69 54 52 51 54 40 44 50 59
39 41 42 43 54 74 91 83 95 99 99 64 90 85 82 81 91 78 80 90 89 96 93 95 84 98 88 80 67 71 72 80 80 80 88 85 59 55 55 49 52 54 57 62
36 38 39 42 48 60 73 85 96 99 99 69 74 70 78 85 80 82 94 97 94 96 97 98 97 84 76 69 77 73 75 71 73 74 72 65 64 61 62 60 61 65 67 68
43 43 45 48 52 66 77 75 93 95 88 70 67 67 72 77 71 86 96 96 97 98 98 98 97 98 84 80 72 81 84 80 77 78 79 77 73 73 75 74 76 78 77 74
41 42 52 63 68 73 83 80 85 92 95 84 61 68 71 72 73 82 95 96 98 98 98 97 93 97 92 91 89 89 92 90 93 96 96 93 88 83 82 84 87 85 83 83
42 42 51 62 80 86 87 75 88 93 95 88 71 66 66 66 68 83 94 97 99 98 98 98 98 99 98 97 98 97 98 99 98 97 94 95 97 96 94 92 92 92 92 92
39 40 57 72 87 85 81 91 85 80 89 90 91 65 65 75 77 85 96 98 98 98 98 98 98 99 99 98 97 98 98 98 98 98 98 98 98 99 99 99 99 99 99 98
40 42 60 67 68 86 97 83 68 88 98 96 71 74 77 84 86 94 96 98 98 98 98 98 98 97 93 95 96 97 98 98 98 98 98 98 98 98 98 98 99 99 98 98
43 44 57 79 86 83 80 86 96 84 77 86 92 84 80 86 90 95 93 98 98 98 98 97 97 95 94 95 98 98 98 98 98 98 98 98 98 98 98 98 98 98 98 98
43 48 60 78 82 79 74 69 72 72 88 95 94 95 87 77 89 91 92 96 98 99 97 97 92 94 96 99 98 98 98 98 98 98 98 98 98 98 98 98 98 97 98 98
45 55 62 70 76 74 74 68 70 83 97 84 88 83 85 88 92 90 93 93 98 98 98 94 96 98 99 98 98 98 98 98 98 97 97 98 97 97 98 97 97 96 96 95
44 59 68 72 71 68 67 71 74 77 78 77 79 82 82 89 98 97 98 98 98 98 97 93 97 98 98 98 98 98 98 98 97 97 97 96 94 93 91 90 89 87 85 80
52 63 65 63 64 66 71 75 75 77 78 73 80 82 85 91 98 98 98 98 97 98 96 92 97 99 99 98 98 94 91 90 87 85 83 81 79 77 75 74 72 71 69 68
51 55 59 68 68 74 83 84 81 82 75 76 80 83 83 91 98 98 96 97 98 92 94 98 99 99 98 98 98 95 93 91 87 83 78 74 71 69 67 65 63 61 60 59
51 54 62 72 81 85 87 88 88 84 82 78 81 83 87 95 98 96 97 91 84 96 96 99 99 99 98 97 94 90 86 82 78 77 75 74 75 75 73 71 67 63 59 56
44 55 75 79 82 83 79 76 70 71 78 80 80 82 84 93 92 92 90 89 99 98 99 99 99 97 92 88 85 82 77 75 74 72 69 67 66 64 62 61 59 57 55 52
51 63 72 70 72 71 64 59 61 57 61 71 78 83 80 84 89 93 98 93 99 98 99 98 94 90 84 79 76 74 72 71 69 67 64 62 60 58 57 55 53 52 51 50
60 71 71 71 69 66 62 58 58 60 57 62 72 83 93 82 89 97 97 98 99 98 94 91 86 82 78 75 72 69 67 65 63 62 61 59 58 56 54 53 52 50 48 47